Simultaneous Nadir Overpasses (SNOs) Predictions

Prediction of SNOs between LANDSAT-8 and NOAA-19 Satellite Orbit:

Table of predicted SNOs for the next 14.0 days since TLE Epoch: 10/24/2020
Index Date (LANDSAT-8) Time (LANDSAT-8) Lat,Lon (LANDSAT-8) SZA (LANDSAT-8 ) Date (NOAA-19) Time (NOAA-19) Lat,Lon (NOAA-19) SZA (NOAA-19 ) Distance(km) Time Diff (sec)
1 10/26/2020 02:17:10 80.03, 173.62 94.00 10/26/2020 02:16:07 80.03, 173.55 93.98 1.29 63
2 10/26/2020 03:06:38 -79.99, -19.06 86.05 10/26/2020 03:07:08 -80.02, -19.05 86.01 2.89 30
3 10/28/2020 08:40:21 80.01, 77.64 94.73 10/28/2020 08:40:21 80.01, 77.78 94.75 2.79 0
4 10/30/2020 14:14:04 -80.05, 174.57 84.47 10/30/2020 14:13:38 -80.02, 174.47 84.51 3.77 26
5 10/30/2020 15:03:31 80.02, -18.07 95.49 10/30/2020 15:04:35 80.00, -18.01 95.51 2.13 64
6 11/01/2020 19:47:48 80.02, -89.09 96.20 11/01/2020 19:46:51 80.04, -89.09 96.20 2.56 57
7 11/01/2020 20:37:15 -80.02, 78.57 83.79 11/01/2020 20:37:53 -80.02, 78.53 83.78 1.11 38
8 11/04/2020 02:10:58 80.03, 175.17 96.92 11/04/2020 02:11:05 80.03, 175.11 96.92 1.30 7
9 11/06/2020 07:44:42 -80.04, -88.20 82.41 11/06/2020 07:44:23 -80.03, -88.06 82.41 2.72 19
